Tracking 30918 objects as of 2-Jul-2025
HD Live streaming from Space Station
objects crossing your sky now

OPS 9324 (IDSCS 11)

Track OPS 9324 (IDSCS 11) now!
OPS 9324 (IDSCS 11) is classified as:


NORAD ID: 2651
Int'l Code: 1967-003D
Perigee: 33,588.6 km
Apogee: 33,874.5 km
Inclination: 7.6 °
Period: 1,332.0 minutes
Semi major axis: 40102 km
RCS: 0.1995 m2 (medium)
Launch date: January 18, 1967
Source: United States (US)
Launch site: AIR FORCE EASTERN TEST RANGE (AFETR)
Your satellite tracking list
STARLINK-1723
Track 1 satellite(s)




NASA's NSSDC Master Catalog

Two Line Element Set (TLE):
1 02651U 67003D   25173.46991542 -.00000057  00000-0  00000-0 0  9991
2 02651   7.5885  48.3734 0035646  86.4657  99.9913  1.08104650136856
Source of the keplerian elements: AFSPC